Weather Roundup
Issued by NWS Springfield, MO

Home | Current Version | Previous Version | Text Only | Print | Product List | Glossary On
Versions: 1 2 3 4 5 6 7 8 9 10 11 12 13 14 15 16 17 18 19 20 21 22 23 24 25 26 27 28 29 30 31 32 33 34 35 36 37 38 39 40 41 42 43 44 45 46 47 48 49 50
000
NZUS99 KSGF 290607
HRRSGF

HOURLY WEATHER
NATIONAL WEATHER SERVICE SPRINGFIELD MO
100 AM CDT FRI JUL 29 2016

......SGF CWA......

CITY           SKY/WX    TMP DP  RH WIND       PRES   REMARKS
SPRINGFIELD    CLEAR     73  69  87 CALM      29.98F
6HR MIN TEMP:  73; 6HR MAX TEMP:  83;

JOPLIN         PTCLDY    76  70  82 N3        29.98S
6HR MIN TEMP:  75; 6HR MAX TEMP:  87;

WEST PLAINS    CLEAR     69  66  90 W5        29.99S
6HR MIN TEMP:  69; 6HR MAX TEMP:  85; 6HR PCP:  0.12;

ROLLA          CLEAR     69  67  93 NW3       29.96S
6HR MIN TEMP:  67; 6HR MAX TEMP:  78;

OSAGE BEACH    CLEAR     72  71  97 CALM      29.98S

......SURROUNDING SGF CWA......

CITY           SKY/WX    TMP DP  RH WIND       PRES   REMARKS
CHANUTE        CLOUDY    73  66  78 CALM      30.00R
PARSONS        CLOUDY    74  69  85 N3        30.01R
COFFEYVILLE    MOCLDY    72  68  87 VRB3      29.96F
EMPORIA        CLOUDY    69  67  93 W6        30.01R
GROVE OK       CLEAR     79  77  94 CALM      29.99F
ROGERS AR      PTCLDY    75  74  96 CALM      30.01F
SILOAM SPRINGS PTCLDY    77  66  69 CALM      30.01F
HARRISON AR    MOCLDY    74  71  91 NW3       30.00F
NEAR YELLVILLE PTCLDY    75  68  78 CALM      29.94S

......KANSAS AND MISSOURI......

CITY           SKY/WX    TMP DP  RH WIND       PRES   REMARKS
KANSAS CTY INT CLOUDY    76  65  68 NE7       29.99R
DOWNTOWN KC    CLOUDY    79  65  62 NE9       29.96F
COLUMBIA       CLEAR     72  70  93 NW5       29.97F
SEDALIA        CLOUDY    75  72  90 E6        29.98F
ST JOSEPH      CLOUDY    74  66  76 NE5       29.99S
ST LOUIS       PTCLDY    78  70  76 NW5       29.94R
SPIRIT OF STL  PTCLDY    76  73  91 CALM      29.92S
KIRKSVILLE     CLOUDY    64  62  93 NW5       29.99S
WICHITA        MOCLDY    73  68  84 NE7       30.00S
TOPEKA         CLOUDY    69  66  90 SW3       30.01R
OLATHE         MOCLDY    70  69  97 N8        29.98F

......TENNESSEE......

CITY           SKY/WX    TMP DP  RH WIND       PRES   REMARKS
MEMPHIS        CLOUDY    78  73  84 VRB7      29.97S
NASHVILLE      CLOUDY    77  73  87 SW5       29.96S

......ARKANSAS.......

CITY           SKY/WX    TMP DP  RH WIND       PRES   REMARKS
FAYETTEVILLE   CLOUDY    76  76 100 CALM      30.01R
FT SMITH       CLOUDY    80  69  69 CALM      29.95R
LITTLE ROCK    PTCLDY    77  72  84 S7        29.96S

......OKLAHOMA.......

CITY           SKY/WX    TMP DP  RH WIND       PRES   REMARKS
TULSA          MOCLDY    79  69  71 N8G18     29.96F
PONCA CITY     CLEAR     71  64  78 E8        29.98R
MCALESTER      CLEAR     79  72  79 S3        29.97S
OKLAHOMA CITY  MOCLDY    79  72  79 E8        29.97F

......IOWA............

CITY           SKY/WX    TMP DP  RH WIND       PRES   REMARKS
DES MOINES     CLOUDY    70  65  84 N8        29.99S
QUAD CITIES    CLEAR     72  67  84 W6        29.91F

......ILLINOIS........

CITY           SKY/WX    TMP DP  RH WIND       PRES   REMARKS
QUINCY         CLEAR     70  68  93 W3        29.95S
CHICAGO        MOCLDY    70  68  93 N9        29.92R




USA.gov is the U.S. government's official web portal to all federal, state and local government web resources and services.